Year,Month,Day,Hour,Minute,Value (Times are PST for temperature in C)
2006,07,20,00,00,14.60
2006,07,20,00,01,14.50
2006,07,20,00,02,14.50
2006,07,20,00,03,14.50
2006,07,20,00,04,14.50
2006,07,20,00,05,14.50
2006,07,20,00,06,14.50
2006,07,20,00,07,14.50
2006,07,20,00,08,14.40
2006,07,20,00,09,14.40
2006,07,20,00,10,14.40
2006,07,20,00,11,14.40
2006,07,20,00,12,14.40
2006,07,20,00,13,14.40
2006,07,20,00,14,14.40
2006,07,20,00,15,14.40
2006,07,20,00,16,14.40
2006,07,20,00,17,14.40
2006,07,20,00,18,14.40
2006,07,20,00,19,14.40
2006,07,20,00,20,14.40
2006,07,20,00,21,14.40
2006,07,20,00,22,14.40
2006,07,20,00,23,14.50
2006,07,20,00,24,14.50
2006,07,20,00,25,14.60
2006,07,20,00,26,14.60
2006,07,20,00,27,14.60
2006,07,20,00,28,14.70
2006,07,20,00,29,14.70
2006,07,20,00,30,14.80
2006,07,20,00,31,14.80
2006,07,20,00,32,14.80
2006,07,20,00,33,14.80
2006,07,20,00,34,14.80
2006,07,20,00,35,14.90
2006,07,20,00,36,14.90
2006,07,20,00,37,14.90
2006,07,20,00,38,14.90
2006,07,20,00,39,15.00
2006,07,20,00,40,15.00
2006,07,20,00,41,15.00
2006,07,20,00,42,15.00
2006,07,20,00,43,15.00
2006,07,20,00,44,15.00
2006,07,20,00,45,15.00
2006,07,20,00,46,15.00
2006,07,20,00,47,15.00
2006,07,20,00,48,15.00
2006,07,20,00,49,15.00
2006,07,20,00,50,15.00
2006,07,20,00,51,15.00
2006,07,20,00,52,15.00
2006,07,20,00,53,15.00
2006,07,20,00,54,15.00
2006,07,20,00,55,15.00
2006,07,20,00,56,15.00
2006,07,20,00,57,14.90
2006,07,20,00,58,14.90
2006,07,20,00,59,14.90
2006,07,20,01,00,14.90
2006,07,20,01,01,14.90
2006,07,20,01,02,14.90
2006,07,20,01,03,14.90
2006,07,20,01,04,14.90
2006,07,20,01,05,14.80
2006,07,20,01,06,14.80
2006,07,20,01,07,14.80
2006,07,20,01,08,14.80
2006,07,20,01,09,14.80
2006,07,20,01,10,14.80
2006,07,20,01,11,14.80
2006,07,20,01,12,14.80
2006,07,20,01,13,14.80
2006,07,20,01,14,14.80
2006,07,20,01,15,14.80
2006,07,20,01,16,14.80
2006,07,20,01,17,14.70
2006,07,20,01,18,14.70
2006,07,20,01,19,14.70
2006,07,20,01,20,14.70
2006,07,20,01,21,14.70
2006,07,20,01,22,14.70
2006,07,20,01,23,14.70
2006,07,20,01,24,14.70
2006,07,20,01,25,14.70
2006,07,20,01,26,14.70
2006,07,20,01,27,14.70
2006,07,20,01,28,14.80
2006,07,20,01,29,14.70
2006,07,20,01,30,14.80
2006,07,20,01,31,14.80
2006,07,20,01,32,14.80
2006,07,20,01,33,14.80
2006,07,20,01,34,14.80
2006,07,20,01,35,14.80
2006,07,20,01,36,14.80
2006,07,20,01,37,14.80
2006,07,20,01,38,14.80
2006,07,20,01,39,14.80
2006,07,20,01,40,14.80
2006,07,20,01,41,14.70
2006,07,20,01,42,14.70
2006,07,20,01,43,14.70
2006,07,20,01,44,14.70
2006,07,20,01,45,14.70
2006,07,20,01,46,14.70
2006,07,20,01,47,14.70
2006,07,20,01,48,14.70
2006,07,20,01,49,14.80
2006,07,20,01,50,14.80
2006,07,20,01,51,14.80
2006,07,20,01,52,14.80
2006,07,20,01,53,14.80
2006,07,20,01,54,14.80
2006,07,20,01,55,14.80
2006,07,20,01,56,14.80
2006,07,20,01,57,14.80
2006,07,20,01,58,14.80
2006,07,20,01,59,14.80
2006,07,20,02,00,14.80
2006,07,20,02,01,14.80
2006,07,20,02,02,14.80
2006,07,20,02,03,14.80
2006,07,20,02,04,14.80
2006,07,20,02,05,14.80
2006,07,20,02,06,14.80
2006,07,20,02,07,14.80
2006,07,20,02,08,14.80
2006,07,20,02,09,14.80
2006,07,20,02,10,14.80
2006,07,20,02,11,14.80
2006,07,20,02,12,14.80
2006,07,20,02,13,14.80
2006,07,20,02,14,14.80
2006,07,20,02,15,14.80
2006,07,20,02,16,14.80
2006,07,20,02,17,14.80
2006,07,20,02,18,14.80
2006,07,20,02,19,14.80
2006,07,20,02,20,14.80
2006,07,20,02,21,14.80
2006,07,20,02,22,14.80
2006,07,20,02,23,14.80
2006,07,20,02,24,14.80
2006,07,20,02,25,14.80
2006,07,20,02,26,14.70
2006,07,20,02,27,14.70
2006,07,20,02,28,14.70
2006,07,20,02,29,14.70
2006,07,20,02,30,14.70
2006,07,20,02,31,14.70
2006,07,20,02,32,14.70
2006,07,20,02,33,14.60
2006,07,20,02,34,14.60
2006,07,20,02,35,14.60
2006,07,20,02,36,14.60
2006,07,20,02,37,14.60
2006,07,20,02,38,14.50
2006,07,20,02,39,14.50
2006,07,20,02,40,14.50
2006,07,20,02,41,14.50
2006,07,20,02,42,14.40
2006,07,20,02,43,14.40
2006,07,20,02,44,14.40
2006,07,20,02,45,14.40
2006,07,20,02,46,14.40
2006,07,20,02,47,14.40
2006,07,20,02,48,14.40
2006,07,20,02,49,14.40
2006,07,20,02,50,14.40
2006,07,20,02,51,14.40
2006,07,20,02,52,14.40
2006,07,20,02,53,14.40
2006,07,20,02,54,14.30
2006,07,20,02,55,14.30
2006,07,20,02,56,14.30
2006,07,20,02,57,14.20
2006,07,20,02,58,14.20
2006,07,20,02,59,14.20
2006,07,20,03,00,14.20
2006,07,20,03,01,14.20
2006,07,20,03,02,14.20
2006,07,20,03,03,14.20
2006,07,20,03,04,14.10
2006,07,20,03,05,14.10
2006,07,20,03,06,14.10
2006,07,20,03,07,14.00
2006,07,20,03,08,14.00
2006,07,20,03,09,14.00
2006,07,20,03,10,14.00
2006,07,20,03,11,13.90
2006,07,20,03,12,13.90
2006,07,20,03,13,13.90
2006,07,20,03,14,13.90
2006,07,20,03,15,13.90
2006,07,20,03,16,13.80
2006,07,20,03,17,13.80
2006,07,20,03,18,13.80
2006,07,20,03,19,13.80
2006,07,20,03,20,13.80
2006,07,20,03,21,13.80
2006,07,20,03,22,13.80
2006,07,20,03,23,13.80
2006,07,20,03,24,13.80
2006,07,20,03,25,13.80
2006,07,20,03,26,13.80
2006,07,20,03,27,13.80
2006,07,20,03,28,13.80
2006,07,20,03,29,13.80
2006,07,20,03,30,13.70
2006,07,20,03,31,13.70
2006,07,20,03,32,13.70
2006,07,20,03,33,13.70
2006,07,20,03,34,13.70
2006,07,20,03,35,13.70
2006,07,20,03,36,13.70
2006,07,20,03,37,13.70
2006,07,20,03,38,13.70
2006,07,20,03,39,13.70
2006,07,20,03,40,13.70
2006,07,20,03,41,13.70
2006,07,20,03,42,13.70
2006,07,20,03,43,13.70
2006,07,20,03,44,13.70
2006,07,20,03,45,13.70
2006,07,20,03,46,13.70
2006,07,20,03,47,13.80
2006,07,20,03,48,13.80
2006,07,20,03,49,13.90
2006,07,20,03,50,13.90
2006,07,20,03,51,13.90
2006,07,20,03,52,13.90
2006,07,20,03,53,13.90
2006,07,20,03,54,13.90
2006,07,20,03,55,13.90
2006,07,20,03,56,13.80
2006,07,20,03,57,13.80
2006,07,20,03,58,13.80
2006,07,20,03,59,13.70
2006,07,20,04,00,13.70
2006,07,20,04,01,13.70
2006,07,20,04,02,13.60
2006,07,20,04,03,13.60
2006,07,20,04,04,13.70
2006,07,20,04,05,13.70
2006,07,20,04,06,13.70
2006,07,20,04,07,13.70
2006,07,20,04,08,13.80
2006,07,20,04,09,13.80
2006,07,20,04,10,13.80
2006,07,20,04,11,13.80
2006,07,20,04,12,13.70
2006,07,20,04,13,13.70
2006,07,20,04,14,13.70
2006,07,20,04,15,13.70
2006,07,20,04,16,13.70
2006,07,20,04,17,13.70
2006,07,20,04,18,13.80
2006,07,20,04,19,13.80
2006,07,20,04,20,13.80
2006,07,20,04,21,13.80
2006,07,20,04,22,13.80
2006,07,20,04,23,13.80
2006,07,20,04,24,13.80
2006,07,20,04,25,13.70
2006,07,20,04,26,13.70
2006,07,20,04,27,13.70
2006,07,20,04,28,13.70
2006,07,20,04,29,13.70
2006,07,20,04,30,13.70
2006,07,20,04,31,13.70
2006,07,20,04,32,13.70
2006,07,20,04,33,13.70
2006,07,20,04,34,13.70
2006,07,20,04,35,13.70
2006,07,20,04,36,13.70
2006,07,20,04,37,13.70
2006,07,20,04,38,13.70
2006,07,20,04,39,13.70
2006,07,20,04,40,13.70
2006,07,20,04,41,13.70
2006,07,20,04,42,13.70
2006,07,20,04,43,13.60
2006,07,20,04,44,13.60
2006,07,20,04,45,13.60
2006,07,20,04,46,13.60
2006,07,20,04,47,13.60
2006,07,20,04,48,13.60
2006,07,20,04,49,13.60
2006,07,20,04,50,13.50
2006,07,20,04,51,13.50
2006,07,20,04,52,13.50
2006,07,20,04,53,13.50
2006,07,20,04,54,13.50
2006,07,20,04,55,13.50
2006,07,20,04,56,13.50
2006,07,20,04,57,13.50
2006,07,20,04,58,13.50
2006,07,20,04,59,13.50
2006,07,20,05,00,13.50
2006,07,20,05,01,13.40
2006,07,20,05,02,13.40
2006,07,20,05,03,13.40
2006,07,20,05,04,13.40
2006,07,20,05,05,13.40
2006,07,20,05,06,13.40
2006,07,20,05,07,13.40
2006,07,20,05,08,13.40
2006,07,20,05,09,13.40
2006,07,20,05,10,13.30
2006,07,20,05,11,13.30
2006,07,20,05,12,13.30
2006,07,20,05,13,13.40
2006,07,20,05,14,13.40
2006,07,20,05,15,13.40
2006,07,20,05,16,13.40
2006,07,20,05,17,13.40
2006,07,20,05,18,13.30
2006,07,20,05,19,13.30
2006,07,20,05,20,13.30
2006,07,20,05,21,13.40
2006,07,20,05,22,13.40
2006,07,20,05,23,13.40
2006,07,20,05,24,13.40
2006,07,20,05,25,13.40
2006,07,20,05,26,13.40
2006,07,20,05,27,13.40
2006,07,20,05,28,13.40
2006,07,20,05,29,13.40
2006,07,20,05,30,13.40
2006,07,20,05,31,13.40
2006,07,20,05,32,13.40
2006,07,20,05,33,13.30
2006,07,20,05,34,13.30
2006,07,20,05,35,13.30
2006,07,20,05,36,13.30
2006,07,20,05,37,13.30
2006,07,20,05,38,13.30
2006,07,20,05,39,13.30
2006,07,20,05,40,13.30
2006,07,20,05,41,13.30
2006,07,20,05,42,13.30
2006,07,20,05,43,13.30
2006,07,20,05,44,13.30
2006,07,20,05,45,13.30
2006,07,20,05,46,13.30
2006,07,20,05,47,13.30
2006,07,20,05,48,13.30
2006,07,20,05,49,13.30
2006,07,20,05,50,13.40
2006,07,20,05,51,13.40
2006,07,20,05,52,13.40
2006,07,20,05,53,13.40
2006,07,20,05,54,13.40
2006,07,20,05,55,13.50
2006,07,20,05,56,13.50
2006,07,20,05,57,13.50
2006,07,20,05,58,13.50
2006,07,20,05,59,13.40
2006,07,20,06,00,13.40
2006,07,20,06,01,13.40
2006,07,20,06,02,13.40
2006,07,20,06,03,13.40
2006,07,20,06,04,13.40
2006,07,20,06,05,13.40
2006,07,20,06,06,13.40
2006,07,20,06,07,13.40
2006,07,20,06,08,13.40
2006,07,20,06,09,13.40
2006,07,20,06,10,13.40
2006,07,20,06,11,13.40
2006,07,20,06,12,13.40
2006,07,20,06,13,13.40
2006,07,20,06,14,13.40
2006,07,20,06,15,13.40
2006,07,20,06,16,13.40
2006,07,20,06,17,13.40
2006,07,20,06,18,13.50
2006,07,20,06,19,13.50
2006,07,20,06,20,13.50
2006,07,20,06,21,13.50
2006,07,20,06,22,13.60
2006,07,20,06,23,13.60
2006,07,20,06,24,13.60
2006,07,20,06,25,13.60
2006,07,20,06,26,13.60
2006,07,20,06,27,13.70
2006,07,20,06,28,13.70
2006,07,20,06,29,13.70
2006,07,20,06,30,13.70
2006,07,20,06,31,13.70
2006,07,20,06,32,13.70
2006,07,20,06,33,13.70
2006,07,20,06,34,13.80
2006,07,20,06,35,13.80
2006,07,20,06,36,13.80
2006,07,20,06,37,13.90
2006,07,20,06,38,13.90
2006,07,20,06,39,14.00
2006,07,20,06,40,14.00
2006,07,20,06,41,14.10
2006,07,20,06,42,14.10
2006,07,20,06,43,14.20
2006,07,20,06,44,14.20
2006,07,20,06,45,14.20
2006,07,20,06,46,14.20
2006,07,20,06,47,14.20
2006,07,20,06,48,14.20
2006,07,20,06,49,14.20
2006,07,20,06,50,14.20
2006,07,20,06,51,14.30
2006,07,20,06,52,14.30
2006,07,20,06,53,14.40
2006,07,20,06,54,14.50
2006,07,20,06,55,14.60
2006,07,20,06,56,14.60
2006,07,20,06,57,14.70
2006,07,20,06,58,14.80
2006,07,20,06,59,14.90
2006,07,20,07,00,15.00
2006,07,20,07,01,15.10
2006,07,20,07,02,15.20
2006,07,20,07,03,15.20
2006,07,20,07,04,15.30
2006,07,20,07,05,15.30
2006,07,20,07,06,15.40
2006,07,20,07,07,15.50
2006,07,20,07,08,15.70
2006,07,20,07,09,15.80
2006,07,20,07,10,15.80
2006,07,20,07,11,15.90
2006,07,20,07,12,15.90
2006,07,20,07,13,15.90
2006,07,20,07,14,15.90
2006,07,20,07,15,15.90
2006,07,20,07,16,15.90
2006,07,20,07,17,15.90
2006,07,20,07,18,15.90
2006,07,20,07,19,16.00
2006,07,20,07,20,16.10
2006,07,20,07,21,16.10
2006,07,20,07,22,16.10
2006,07,20,07,23,16.10
2006,07,20,07,24,16.10
2006,07,20,07,25,16.10
2006,07,20,07,26,16.10
2006,07,20,07,27,16.20
2006,07,20,07,28,16.20
2006,07,20,07,29,16.30
2006,07,20,07,30,16.40
2006,07,20,07,31,16.50
2006,07,20,07,32,16.70
2006,07,20,07,33,16.70
2006,07,20,07,34,16.90
2006,07,20,07,35,17.00
2006,07,20,07,36,17.00
2006,07,20,07,37,17.10
2006,07,20,07,38,17.10
2006,07,20,07,39,17.20
2006,07,20,07,40,17.20
2006,07,20,07,41,17.20
2006,07,20,07,42,17.20
2006,07,20,07,43,17.20
2006,07,20,07,44,17.20
2006,07,20,07,45,17.10
2006,07,20,07,46,17.00
2006,07,20,07,47,17.00
2006,07,20,07,48,16.90
2006,07,20,07,49,16.90
2006,07,20,07,50,16.90
2006,07,20,07,51,16.70
2006,07,20,07,52,16.70
2006,07,20,07,53,16.60
2006,07,20,07,54,16.60
2006,07,20,07,55,16.60
2006,07,20,07,56,16.50
2006,07,20,07,57,16.40
2006,07,20,07,58,16.40
2006,07,20,07,59,16.40
2006,07,20,08,00,16.40
2006,07,20,08,01,16.40
2006,07,20,08,02,16.50
2006,07,20,08,03,16.60
2006,07,20,08,04,16.70
2006,07,20,08,05,16.70
2006,07,20,08,06,16.70
2006,07,20,08,07,16.70
2006,07,20,08,08,16.70
2006,07,20,08,09,16.60
2006,07,20,08,10,16.60
2006,07,20,08,11,16.60
2006,07,20,08,12,16.60
2006,07,20,08,13,16.60
2006,07,20,08,14,16.60
2006,07,20,08,15,16.70
2006,07,20,08,16,16.70
2006,07,20,08,17,16.80
2006,07,20,08,18,16.80
2006,07,20,08,19,16.80
2006,07,20,08,20,16.90
2006,07,20,08,21,16.90
2006,07,20,08,22,17.00
2006,07,20,08,23,17.00
2006,07,20,08,24,17.10
2006,07,20,08,25,17.10
2006,07,20,08,26,17.20
2006,07,20,08,27,17.20
2006,07,20,08,28,17.30
2006,07,20,08,29,17.30
2006,07,20,08,30,17.30
2006,07,20,08,31,17.30
2006,07,20,08,32,17.40
2006,07,20,08,33,17.50
2006,07,20,08,34,17.50
2006,07,20,08,35,17.60
2006,07,20,08,36,17.70
2006,07,20,08,37,17.80
2006,07,20,08,38,17.90
2006,07,20,08,39,18.00
2006,07,20,08,40,18.10
2006,07,20,08,41,18.20
2006,07,20,08,42,18.30
2006,07,20,08,43,18.40
2006,07,20,08,44,18.50
2006,07,20,08,45,18.60
2006,07,20,08,46,18.60
2006,07,20,08,47,18.70
2006,07,20,08,48,18.70
2006,07,20,08,49,18.70
2006,07,20,08,50,18.60
2006,07,20,08,51,18.60
2006,07,20,08,52,18.60
2006,07,20,08,53,18.60
2006,07,20,08,54,18.60
2006,07,20,08,55,18.70
2006,07,20,08,56,18.80
2006,07,20,08,57,18.90
2006,07,20,08,58,19.00
2006,07,20,08,59,19.10
2006,07,20,09,00,19.20
2006,07,20,09,01,19.30
2006,07,20,09,02,19.40
2006,07,20,09,03,19.50
2006,07,20,09,04,19.60
2006,07,20,09,05,19.70
2006,07,20,09,06,19.80
2006,07,20,09,07,19.90
2006,07,20,09,08,19.90
2006,07,20,09,09,20.00
2006,07,20,09,10,20.10
2006,07,20,09,11,20.10
2006,07,20,09,12,20.20
2006,07,20,09,13,20.20
2006,07,20,09,14,20.20
2006,07,20,09,15,20.20
2006,07,20,09,16,20.20
2006,07,20,09,17,20.20
2006,07,20,09,18,20.20
2006,07,20,09,19,20.20
2006,07,20,09,20,20.30
2006,07,20,09,21,20.50
2006,07,20,09,22,20.50
2006,07,20,09,23,20.70
2006,07,20,09,24,20.80
2006,07,20,09,25,20.90
2006,07,20,09,26,20.90
2006,07,20,09,27,21.00
2006,07,20,09,28,21.10
2006,07,20,09,29,21.20
2006,07,20,09,30,21.30
2006,07,20,09,31,21.30
2006,07,20,09,32,21.30
2006,07,20,09,33,21.30
2006,07,20,09,34,21.30
2006,07,20,09,35,21.50
2006,07,20,09,36,21.60
2006,07,20,09,37,21.60
2006,07,20,09,38,21.60
2006,07,20,09,39,21.70
2006,07,20,09,40,21.70
2006,07,20,09,41,21.70
2006,07,20,09,42,21.90
2006,07,20,09,43,22.00
2006,07,20,09,44,22.00
2006,07,20,09,45,22.00
2006,07,20,09,46,21.90
2006,07,20,09,47,21.80
2006,07,20,09,48,21.80
2006,07,20,09,49,21.90
2006,07,20,09,50,21.90
2006,07,20,09,51,21.90
2006,07,20,09,52,21.90
2006,07,20,09,53,21.90
2006,07,20,09,54,21.90
2006,07,20,09,55,21.90
2006,07,20,09,56,22.00
2006,07,20,09,57,22.00
2006,07,20,09,58,22.00
2006,07,20,09,59,22.10
2006,07,20,10,00,22.20
2006,07,20,10,01,22.20
2006,07,20,10,02,22.30
2006,07,20,10,03,22.40
2006,07,20,10,04,22.40
2006,07,20,10,05,22.50
2006,07,20,10,06,22.50
2006,07,20,10,07,22.50
2006,07,20,10,08,22.50
2006,07,20,10,09,22.30
2006,07,20,10,10,22.20
2006,07,20,10,11,22.20
2006,07,20,10,12,22.10
2006,07,20,10,13,22.10
2006,07,20,10,14,22.10
2006,07,20,10,15,22.10
2006,07,20,10,16,22.20
2006,07,20,10,17,22.40
2006,07,20,10,18,22.50
2006,07,20,10,19,22.60
2006,07,20,10,20,22.60
2006,07,20,10,21,22.70
2006,07,20,10,22,22.80
2006,07,20,10,23,22.80
2006,07,20,10,24,22.80
2006,07,20,10,25,22.80
2006,07,20,10,26,22.90
2006,07,20,10,27,23.10
2006,07,20,10,28,23.10
2006,07,20,10,29,23.10
2006,07,20,10,30,23.20
2006,07,20,10,31,23.20
2006,07,20,10,32,23.20
2006,07,20,10,33,23.30
2006,07,20,10,34,23.30
2006,07,20,10,35,23.30
2006,07,20,10,36,23.30
2006,07,20,10,37,23.30
2006,07,20,10,38,23.40
2006,07,20,10,39,23.40
2006,07,20,10,40,23.40
2006,07,20,10,41,23.40
2006,07,20,10,42,23.40
2006,07,20,10,43,23.40
2006,07,20,10,44,23.40
2006,07,20,10,45,23.40
2006,07,20,10,46,23.40
2006,07,20,10,47,23.50
2006,07,20,10,48,23.60
2006,07,20,10,49,23.70
2006,07,20,10,50,23.70
2006,07,20,10,51,23.80
2006,07,20,10,52,23.80
2006,07,20,10,53,23.80
2006,07,20,10,54,23.80
2006,07,20,10,55,23.80
2006,07,20,10,56,23.70
2006,07,20,10,57,23.70
2006,07,20,10,58,23.70
2006,07,20,10,59,23.80
2006,07,20,11,00,23.90
2006,07,20,11,01,24.00
2006,07,20,11,02,24.10
2006,07,20,11,03,24.10
2006,07,20,11,04,24.10
2006,07,20,11,05,24.10
2006,07,20,11,06,24.10
2006,07,20,11,07,24.20
2006,07,20,11,08,24.10
2006,07,20,11,09,24.00
2006,07,20,11,10,23.90
2006,07,20,11,11,23.80
2006,07,20,11,12,23.80
2006,07,20,11,13,23.80
2006,07,20,11,14,23.80
2006,07,20,11,15,23.80
2006,07,20,11,16,23.90
2006,07,20,11,17,23.90
2006,07,20,11,18,24.00
2006,07,20,11,19,23.90
2006,07,20,11,20,23.90
2006,07,20,11,21,24.00
2006,07,20,11,22,24.10
2006,07,20,11,23,24.10
2006,07,20,11,24,24.20
2006,07,20,11,25,24.20
2006,07,20,11,26,24.30
2006,07,20,11,27,24.40
2006,07,20,11,28,24.50
2006,07,20,11,29,24.50
2006,07,20,11,30,24.20
2006,07,20,11,31,23.60
2006,07,20,11,32,23.10
2006,07,20,11,33,22.60
2006,07,20,11,34,22.10
2006,07,20,11,35,21.70
2006,07,20,11,36,21.50
2006,07,20,11,37,21.40
2006,07,20,11,38,21.30
2006,07,20,11,39,21.30
2006,07,20,11,40,21.30
2006,07,20,11,41,21.30
2006,07,20,11,42,21.40
2006,07,20,11,43,21.40
2006,07,20,11,44,21.40
2006,07,20,11,45,21.40
2006,07,20,11,46,21.40
2006,07,20,11,47,21.60
2006,07,20,11,48,21.60
2006,07,20,11,49,21.60
2006,07,20,11,50,21.60
2006,07,20,11,51,21.50
2006,07,20,11,52,21.40
2006,07,20,11,53,21.40
2006,07,20,11,54,21.50
2006,07,20,11,55,21.60
2006,07,20,11,56,21.60
2006,07,20,11,57,21.70
2006,07,20,11,58,21.70
2006,07,20,11,59,21.70
2006,07,20,12,00,21.70
2006,07,20,12,01,21.70
2006,07,20,12,02,21.90
2006,07,20,12,03,22.00
2006,07,20,12,04,22.20
2006,07,20,12,05,22.40
2006,07,20,12,06,22.60
2006,07,20,12,07,22.90
2006,07,20,12,08,23.10
2006,07,20,12,09,23.40
2006,07,20,12,10,23.60
2006,07,20,12,11,23.80
2006,07,20,12,12,24.00
2006,07,20,12,13,24.10
2006,07,20,12,14,24.10
2006,07,20,12,15,24.10
2006,07,20,12,16,24.10
2006,07,20,12,17,24.10
2006,07,20,12,18,24.10
2006,07,20,12,19,24.10
2006,07,20,12,20,24.10
2006,07,20,12,21,24.20
2006,07,20,12,22,24.20
2006,07,20,12,23,24.10
2006,07,20,12,24,23.90
2006,07,20,12,25,23.80
2006,07,20,12,26,23.70
2006,07,20,12,27,23.40
2006,07,20,12,28,23.10
2006,07,20,12,29,22.70
2006,07,20,12,30,22.20
2006,07,20,12,31,21.90
2006,07,20,12,32,21.60
2006,07,20,12,33,21.30
2006,07,20,12,34,21.20
2006,07,20,12,35,21.10
2006,07,20,12,36,21.00
2006,07,20,12,37,20.90
2006,07,20,12,38,20.90
2006,07,20,12,39,21.00
2006,07,20,12,40,21.00
2006,07,20,12,41,21.00
2006,07,20,12,42,21.10
2006,07,20,12,43,21.00
2006,07,20,12,44,20.90
2006,07,20,12,45,20.80
2006,07,20,12,46,20.90
2006,07,20,12,47,21.00
2006,07,20,12,48,21.00
2006,07,20,12,49,20.80
2006,07,20,12,50,20.70
2006,07,20,12,51,20.50
2006,07,20,12,52,20.50
2006,07,20,12,53,20.50
2006,07,20,12,54,20.40
2006,07,20,12,55,20.50
2006,07,20,12,56,20.70
2006,07,20,12,57,20.80
2006,07,20,12,58,20.80
2006,07,20,12,59,20.80
2006,07,20,13,00,20.90
2006,07,20,13,01,21.10
2006,07,20,13,02,21.10
2006,07,20,13,03,21.00
2006,07,20,13,04,20.90
2006,07,20,13,05,20.70
2006,07,20,13,06,20.70
2006,07,20,13,07,20.80
2006,07,20,13,08,20.90
2006,07,20,13,09,21.00
2006,07,20,13,10,21.00
2006,07,20,13,11,21.10
2006,07,20,13,12,21.20
2006,07,20,13,13,21.30
2006,07,20,13,14,21.20
2006,07,20,13,15,21.10
2006,07,20,13,16,21.10
2006,07,20,13,17,21.10
2006,07,20,13,18,21.10
2006,07,20,13,19,21.20
2006,07,20,13,20,21.30
2006,07,20,13,21,21.50
2006,07,20,13,22,21.60
2006,07,20,13,23,21.80
2006,07,20,13,24,21.80
2006,07,20,13,25,22.20
2006,07,20,13,26,22.30
2006,07,20,13,27,22.30
2006,07,20,13,28,22.50
2006,07,20,13,29,22.60
2006,07,20,13,30,22.80
2006,07,20,13,31,22.90
2006,07,20,13,32,22.90
2006,07,20,13,33,22.90
2006,07,20,13,34,22.90
2006,07,20,13,35,22.90
2006,07,20,13,36,22.90
2006,07,20,13,37,22.90
2006,07,20,13,38,22.90
2006,07,20,13,39,22.90
2006,07,20,13,40,22.90
2006,07,20,13,41,22.90
2006,07,20,13,42,22.90
2006,07,20,13,43,22.90
2006,07,20,13,44,22.70
2006,07,20,13,45,22.60
2006,07,20,13,46,22.50
2006,07,20,13,47,22.50
2006,07,20,13,48,22.60
2006,07,20,13,49,22.60
2006,07,20,13,50,22.60
2006,07,20,13,51,22.70
2006,07,20,13,52,22.60
2006,07,20,13,53,22.40
2006,07,20,13,54,22.30
2006,07,20,13,55,22.40
2006,07,20,13,56,22.40
2006,07,20,13,57,22.50
2006,07,20,13,58,22.40
2006,07,20,13,59,22.30
2006,07,20,14,00,22.10
2006,07,20,14,01,22.00
2006,07,20,14,02,22.00
2006,07,20,14,03,22.00
2006,07,20,14,04,22.00
2006,07,20,14,05,21.80
2006,07,20,14,06,21.90
2006,07,20,14,07,21.90
2006,07,20,14,08,21.80
2006,07,20,14,09,21.70
2006,07,20,14,10,21.60
2006,07,20,14,11,21.60
2006,07,20,14,12,21.40
2006,07,20,14,13,21.30
2006,07,20,14,14,21.30
2006,07,20,14,15,21.30
2006,07,20,14,16,21.30
2006,07,20,14,17,21.40
2006,07,20,14,18,21.50
2006,07,20,14,19,21.80
2006,07,20,14,20,21.90
2006,07,20,14,21,22.00
2006,07,20,14,22,22.00
2006,07,20,14,23,22.10
2006,07,20,14,24,22.20
2006,07,20,14,25,22.20
2006,07,20,14,26,22.40
2006,07,20,14,27,22.60
2006,07,20,14,28,22.80
2006,07,20,14,29,22.80
2006,07,20,14,30,22.80
2006,07,20,14,31,22.80
2006,07,20,14,32,22.60
2006,07,20,14,33,22.50
2006,07,20,14,34,22.50
2006,07,20,14,35,22.50
2006,07,20,14,36,22.50
2006,07,20,14,37,22.50
2006,07,20,14,38,22.50
2006,07,20,14,39,22.50
2006,07,20,14,40,22.50
2006,07,20,14,41,22.50
2006,07,20,14,42,22.70
2006,07,20,14,43,22.70
2006,07,20,14,44,22.70
2006,07,20,14,45,22.70
2006,07,20,14,46,22.80
2006,07,20,14,47,23.00
2006,07,20,14,48,23.10
2006,07,20,14,49,23.30
2006,07,20,14,50,23.30
2006,07,20,14,51,23.40
2006,07,20,14,52,23.40
2006,07,20,14,53,23.40
2006,07,20,14,54,23.50
2006,07,20,14,55,23.60
2006,07,20,14,56,23.70
2006,07,20,14,57,23.80
2006,07,20,14,58,23.90
2006,07,20,14,59,24.10
2006,07,20,15,00,24.20
2006,07,20,15,01,24.40
2006,07,20,15,02,24.60
2006,07,20,15,03,24.70
2006,07,20,15,04,24.90
2006,07,20,15,05,25.00
2006,07,20,15,06,25.10
2006,07,20,15,07,25.20
2006,07,20,15,08,25.30
2006,07,20,15,09,25.50
2006,07,20,15,10,25.60
2006,07,20,15,11,25.70
2006,07,20,15,12,25.80
2006,07,20,15,13,25.90
2006,07,20,15,14,26.00
2006,07,20,15,15,26.10
2006,07,20,15,16,26.00
2006,07,20,15,17,26.00
2006,07,20,15,18,26.10
2006,07,20,15,19,26.20
2006,07,20,15,20,26.20
2006,07,20,15,21,26.20
2006,07,20,15,22,26.20
2006,07,20,15,23,26.20
2006,07,20,15,24,26.00
2006,07,20,15,25,25.70
2006,07,20,15,26,25.40
2006,07,20,15,27,25.20
2006,07,20,15,28,25.10
2006,07,20,15,29,24.90
2006,07,20,15,30,24.80
2006,07,20,15,31,24.90
2006,07,20,15,32,24.60
2006,07,20,15,33,24.20
2006,07,20,15,34,23.80
2006,07,20,15,35,23.60
2006,07,20,15,36,23.50
2006,07,20,15,37,23.40
2006,07,20,15,38,23.30
2006,07,20,15,39,23.30
2006,07,20,15,40,23.00
2006,07,20,15,41,22.90
2006,07,20,15,42,22.80
2006,07,20,15,43,22.60
2006,07,20,15,44,22.50
2006,07,20,15,45,22.60
2006,07,20,15,46,22.60
2006,07,20,15,47,22.80
2006,07,20,15,48,22.90
2006,07,20,15,49,23.10
2006,07,20,15,50,23.20
2006,07,20,15,51,23.10
2006,07,20,15,52,22.90
2006,07,20,15,53,22.70
2006,07,20,15,54,22.60
2006,07,20,15,55,22.60
2006,07,20,15,56,22.60
2006,07,20,15,57,22.70
2006,07,20,15,58,22.80
2006,07,20,15,59,22.70
2006,07,20,16,00,22.60
2006,07,20,16,01,22.60
2006,07,20,16,02,22.60
2006,07,20,16,03,22.70
2006,07,20,16,04,22.70
2006,07,20,16,05,22.90
2006,07,20,16,06,22.90
2006,07,20,16,07,22.90
2006,07,20,16,08,22.80
2006,07,20,16,09,22.80
2006,07,20,16,10,22.80
2006,07,20,16,11,22.80
2006,07,20,16,12,22.90
2006,07,20,16,13,22.90
2006,07,20,16,14,22.90
2006,07,20,16,15,22.90
2006,07,20,16,16,22.90
2006,07,20,16,17,23.00
2006,07,20,16,18,23.10
2006,07,20,16,19,23.10
2006,07,20,16,20,23.20
2006,07,20,16,21,23.20
2006,07,20,16,22,23.30
2006,07,20,16,23,23.40
2006,07,20,16,24,23.70
2006,07,20,16,25,23.90
2006,07,20,16,26,24.10
2006,07,20,16,27,24.20
2006,07,20,16,28,24.40
2006,07,20,16,29,24.40
2006,07,20,16,30,24.50
2006,07,20,16,31,24.50
2006,07,20,16,32,24.60
2006,07,20,16,33,24.70
2006,07,20,16,34,24.80
2006,07,20,16,35,24.80
2006,07,20,16,36,24.90
2006,07,20,16,37,24.90
2006,07,20,16,38,25.00
2006,07,20,16,39,25.00
2006,07,20,16,40,25.00
2006,07,20,16,41,25.10
2006,07,20,16,42,25.10
2006,07,20,16,43,25.10
2006,07,20,16,44,25.10
2006,07,20,16,45,25.20
2006,07,20,16,46,25.00
2006,07,20,16,47,24.80
2006,07,20,16,48,24.70
2006,07,20,16,49,24.50
2006,07,20,16,50,24.60
2006,07,20,16,51,24.70
2006,07,20,16,52,24.80
2006,07,20,16,53,24.90
2006,07,20,16,54,25.00
2006,07,20,16,55,25.00
2006,07,20,16,56,25.00
2006,07,20,16,57,24.90
2006,07,20,16,58,24.70
2006,07,20,16,59,24.70
2006,07,20,17,00,24.70
2006,07,20,17,01,24.80
2006,07,20,17,02,24.90
2006,07,20,17,03,25.00
2006,07,20,17,04,25.00
2006,07,20,17,05,24.90
2006,07,20,17,06,24.90
2006,07,20,17,07,24.80
2006,07,20,17,08,24.80
2006,07,20,17,09,24.80
2006,07,20,17,10,24.80
2006,07,20,17,11,24.70
2006,07,20,17,12,24.70
2006,07,20,17,13,24.70
2006,07,20,17,14,24.60
2006,07,20,17,15,24.60
2006,07,20,17,16,24.60
2006,07,20,17,17,24.50
2006,07,20,17,18,24.40
2006,07,20,17,19,24.30